Change the Weather History Date:

Saturday, July 5, 2014

  Actual Average Record
Temperature  
Mean Temperature 86 °F 81 °F  
Max Temperature 97 °F 93 °F 112 °F (1951)
Min Temperature 75 °F 69 °F 48 °F (1924)
Degree Days  
Heating Degree Days 0 0  
Month to date heating degree days 0 0  
Since 1 June heating degree days 1 7  
Since 1 July heating degree days 0 0  
Cooling Degree Days 21 16  
Month to date cooling degree days 53 76  
Year to date cooling degree days 642 529  
Since 1 June cooling degree days 410 401  
Growing Degree Days 36 (Base 50)    
Moisture  
Dew Point 67 °F    
Average Humidity 59    
Maximum Humidity 79    
Minimum Humidity 38    
Precipitation  
Precipitation 0.00 in 0.15 in 2.55 in (1971)
Month to date precipitation 0.01 0.74  
Year to date precipitation 15.59 16.84  
Sea Level Pressure  
Sea Level Pressure 29.95 in    
Wind  
Wind Speed 17 mph (South)    
Max Wind Speed 26 mph    
Max Gust Speed 33 mph    
Visibility 10 miles    
Events      
T = Trace of Precipitation, MM = Missing Value Source: NWS Daily Summary

Daily Weather History Graph

Daily Weather History Graph

Search for Another Location

Airport or City:

Trip Planner

Search our weather history database for the weather conditions in past years. The results will help you decide how hot, cold, wet, or windy it might be!

Date:

Astronomy

Jul. 05, 2014 Rise Set
Actual Time 6:11 AM CDT 8:58 PM CDT
Civil Twilight 5:39 AM CDT 9:30 PM CDT
Nautical Twilight 4:59 AM CDT 10:10 PM CDT
Astronomical Twilight 4:14 AM CDT 10:55 PM CDT
Moon 2:02 PM CDT (7/5) 12:56 AM CDT (7/5)
Length of Visible Light 15h 50m
Length of Day
14h 47m
First Quarter, 52% of the Moon is Illuminated
Jul 5
First Quarter
Jul 12
Full
Jul 18
Last Quarter
Jul 26
New
Aug 3
First Quarter

Hourly Weather History & Observations

Time (CDT) Temp. Heat Index Dew Point Humidity Pressure Visibility Wind Dir Wind Speed Gust Speed Precip Events Conditions
12:53 AM 77.0 °F - 64.9 °F 66% 30.04 in 10.0 mi South 13.8 mph - N/A   Clear
1:53 AM 77.0 °F - 66.0 °F 69% 30.05 in 10.0 mi South 12.7 mph 20.7 mph N/A   Partly Cloudy
2:53 AM 77.0 °F - 68.0 °F 74% 30.03 in 10.0 mi South 15.0 mph 25.3 mph N/A   Clear
3:53 AM 77.0 °F - 68.0 °F 74% 30.01 in 10.0 mi South 18.4 mph 27.6 mph N/A   Clear
4:53 AM 75.9 °F - 68.0 °F 76% 30.00 in 10.0 mi SSW 17.3 mph - N/A   Clear
5:53 AM 75.9 °F - 68.0 °F 76% 29.99 in 10.0 mi SSW 15.0 mph - N/A   Clear
6:53 AM 75.0 °F - 68.0 °F 79% 30.01 in 7.0 mi South 11.5 mph - N/A   Clear
7:53 AM 78.1 °F - 68.0 °F 71% 30.01 in 8.0 mi South 15.0 mph 21.9 mph N/A   Clear
8:53 AM 81.0 °F 84.1 °F 69.1 °F 67% 30.01 in 10.0 mi South 17.3 mph 26.5 mph N/A   Clear
9:53 AM 81.0 °F 83.8 °F 68.0 °F 65% 30.00 in 10.0 mi South 18.4 mph 25.3 mph N/A   Clear
10:53 AM 87.1 °F 89.9 °F 66.9 °F 51% 29.98 in 10.0 mi SSW 25.3 mph 31.1 mph N/A   Clear
11:53 AM 91.0 °F 93.8 °F 66.0 °F 44% 29.96 in 10.0 mi SSW 23.0 mph 32.2 mph N/A   Clear
12:53 PM 91.0 °F 95.2 °F 68.0 °F 47% 29.96 in 10.0 mi South 20.7 mph 27.6 mph N/A   Clear
1:53 PM 93.9 °F 97.0 °F 66.0 °F 40% 29.93 in 10.0 mi SSW 24.2 mph 31.1 mph N/A   Clear
2:53 PM 96.1 °F 99.9 °F 66.9 °F 38% 29.91 in 10.0 mi South 20.7 mph 27.6 mph N/A   Clear
3:53 PM 96.1 °F 101.0 °F 68.0 °F 40% 29.89 in 10.0 mi South 18.4 mph 29.9 mph N/A   Clear
4:53 PM 96.1 °F 99.9 °F 66.9 °F 38% 29.89 in 10.0 mi South 21.9 mph 27.6 mph N/A   Clear
5:53 PM 96.1 °F 99.9 °F 66.9 °F 38% 29.88 in 10.0 mi SSW 19.6 mph - N/A   Clear
6:53 PM 93.9 °F 97.5 °F 66.9 °F 41% 29.86 in 10.0 mi South 16.1 mph 25.3 mph N/A   Clear
7:53 PM 91.9 °F 95.9 °F 68.0 °F 45% 29.86 in 10.0 mi South 12.7 mph - N/A   Clear
8:53 PM 87.1 °F 90.6 °F 68.0 °F 53% 29.85 in 10.0 mi South 10.4 mph - N/A   Clear
9:53 PM 82.0 °F 84.5 °F 66.9 °F 60% 29.86 in 10.0 mi South 9.2 mph - N/A   Clear
10:53 PM 80.1 °F 82.1 °F 66.0 °F 62% 29.87 in 10.0 mi South 8.1 mph - N/A   Clear
11:53 PM 82.9 °F 85.0 °F 66.0 °F 56% 29.87 in 10.0 mi South 15.0 mph - N/A   Clear